Flag for Canada Weather past 2 weeks in Stephenville, Newfoundland and Labrador, Canada

Now
43 °F

Overcast.


Feels Like: 35 °F
Forecast: 42 / 52 °F
Wind: 15 mph from East

Location: Stephenville

Current Time: Oct 26, 2014 at 7:02:40 AM

Latest Report: Oct 26, 2014 at 6:30 AM


Visibility: 15 mi

Pressure: 29.54 "Hg

Humidity: 87%

Dew point: 39 °F

Location of StephenvilleLocation

Historic Weather in Stephenville — Graph

°F

Stephenville temperature yesterday

Maximum temperature yesterday: 46 °F (at 12:30 AM)
Minimum temperature yesterday: 43 °F (at 6:30 PM)
Average temperature yesterday: 45 °F

Past Weeks' High & Low Weather Summary

 TemperatureHumidityPressure
High63 °F (Oct 20, 8:23 AM)100% (Oct 14, 3:30 AM)30.47 "Hg (Oct 14, 3:30 AM)
Low34 °F (Oct 23, 2:30 AM)48% (Oct 23, 3:30 PM)29.09 "Hg (Oct 20, 9:30 AM)
Average50 °F83%29.91 "Hg
* Reported Oct 11 5:30 AM — Oct 26 5:30 AM, Stephenville, Weather by CustomWeather, © 2014

Note: Actual official high and low records may vary slightly from our data, if they occured in-between our weather recording intervals... More about our weather records

Advertising

Stephenville weather history for previous 24 hours

 ConditionsComfort  
Time TempWeatherWind HumidityBarometerVisibility
5:30 AM
Oct 26
43 °FOvercast.13 mph87%29.53 "Hg15 mi
4:30 AM43 °FPassing clouds.12 mph87%29.53 "Hg15 mi
3:30 AM43 °FPassing clouds.10 mph87%29.53 "Hg15 mi
2:30 AM43 °FOvercast.12 mph87%29.53 "Hg15 mi
2:25 AM43 °FOvercast.15 mph87%29.53 "Hg15 mi
1:32 AM43 °FSprinkles. Fog.15 mph87%29.53 "Hg12 mi
1:30 AM43 °FOvercast.15 mph87%29.53 "Hg12 mi
12:30 AM43 °FOvercast.13 mph87%29.54 "Hg15 mi
11:30 PM
Oct 25
43 °FOvercast.16 mph81%29.53 "Hg15 mi
10:30 PM43 °FOvercast.18 mph81%29.54 "Hg15 mi
9:30 PM43 °FOvercast.20 mph81%29.52 "Hg15 mi
8:30 PM43 °FOvercast.17 mph87%29.52 "Hg15 mi
7:30 PM43 °FOvercast.17 mph87%29.51 "Hg12 mi
6:30 PM43 °FOvercast.17 mph87%29.50 "Hg12 mi
5:30 PM45 °FLight rain. Overcast.20 mph87%29.49 "Hg8 mi
4:30 PM45 °FOvercast.18 mph87%29.48 "Hg8 mi
3:30 PM45 °FSprinkles. Overcast.20 mph87%29.47 "Hg10 mi
2:30 PM46 °FOvercast.20 mph76%29.47 "Hg12 mi
1:30 PM46 °FOvercast.22 mph76%29.47 "Hg15 mi
12:30 PM46 °FOvercast.23 mph76%29.48 "Hg15 mi
11:30 AM46 °FOvercast.24 mph76%29.48 "Hg15 mi
10:30 AM46 °FMore clouds than sun.23 mph76%29.48 "Hg15 mi
9:30 AM45 °FMore clouds than sun.20 mph81%29.48 "Hg15 mi
8:30 AM45 °FMore clouds than sun.18 mph81%29.48 "Hg15 mi
7:30 AM45 °FOvercast.24 mph81%29.47 "Hg15 mi
Weather by CustomWeather, © 2014

See weather overviewHow to use our weather pages